Location: *
(43.4667°N, 11.6833°E)
Time: 09:26:05
(UTC+00:00)

Cosmos 1340 Rocket - Pass Details

Date: 19 July 2019
Orbit: 529 x 559 km, 81.2° (Epoch: 25 August)

Event Time Altitude Azimuth Distance (km) Brightness Sun altitude
Rises 19:34:38 0° 348° (NNW) 2,754 7.3 -7.6°
Reaches altitude 10° 19:36:49 10° 348° (NNW) 1,856 6.3 -7.9°
Maximum altitude 19:40:55 81° 261° (W) 573 3.0 -8.5°
Drops below altitude 10° 19:44:59 10° 175° (S) 1,840 5.1 -9.1°
Enters shadow 19:46:12 - 174° (S) 2,339 5.6 -9.3°
